GW5072 Weather Reports


time (UTC)temp
C
wind
direction
speed
KPH
gust
KPH
rain 1hr
cm
rain 24hr
cm
rain mn
cm
humidity
%
barometer
mb
20260506215504 28 198 0.0 0.0 0.00 0.10 0.10 80 1008.8
20260506215007 28 198 0.0 0.0 0.00 0.10 0.10 81 1008.8
20260506214519 28 198 0.0 0.0 0.00 0.10 0.10 82 1008.9
20260506214008 28 198 0.0 0.0 0.00 0.10 0.10 83 1009.0
20260506213507 28 198 0.0 0.0 0.00 0.10 0.10 81 1008.9
20260506213015 28 198 0.0 0.0 0.00 0.10 0.10 80 1008.9
20260506212504 30 198 0.0 0.0 0.00 0.10 0.10 78 1008.9
20260506212011 30 198 0.0 0.0 0.00 0.10 0.10 78 1009.0
20260506211512 30 198 0.0 0.0 0.00 0.10 0.10 77 1009.0
20260506211010 30 198 0.0 1.6 0.00 0.10 0.10 76 1008.9
20260506210507 30 196 0.0 1.6 0.00 0.10 0.10 76 1008.9
20260506210017 30 205 0.0 0.0 0.00 0.10 0.10 77 1009.0
20260506205512 30 205 0.0 3.2 0.00 0.10 0.10 77 1009.1
20260506205006 30 205 0.0 3.2 0.00 0.10 0.10 79 1009.2
20260506204508 30 221 0.0 4.8 0.00 0.10 0.10 79 1009.1
20260506204006 30 239 0.0 4.8 0.00 0.10 0.10 79 1009.2
20260506203509 30 199 0.0 3.2 0.00 0.10 0.10 80 1009.1
20260506203031 30 162 0.0 1.6 0.00 0.10 0.10 80 1009.2
20260506202507 30 265 0.0 1.6 0.00 0.10 0.10 82 1009.2
20260506202009 29 243 0.0 1.6 0.00 0.10 0.10 82 1009.2
20260506201522 28 205 0.0 0.0 0.00 0.10 0.10 82 1009.4
20260506201007 28 200 0.0 0.0 0.00 0.10 0.10 86 1009.4
20260506200515 27 200 0.0 0.0 0.00 0.10 0.10 87 1009.4
20260506200021 27 166 0.0 0.0 0.00 0.10 0.10 89 1009.6
20260506195507 27 167 0.0 0.0 0.00 0.10 0.10 90 1009.7
20260506195010 27 166 0.0 0.0 0.00 0.10 0.10 89 1009.8
20260506194520 26 166 0.0 0.0 0.00 0.10 0.10 90 1009.8
20260506194004 26 166 0.0 0.0 0.08 0.10 0.10 90 1009.8
20260506193506 26 166 0.0 0.0 0.10 0.10 0.10 89 1009.9
20260506193018 26 166 0.0 0.0 0.10 0.10 0.10 90 1009.9
20260506192508 26 166 0.0 0.0 0.10 0.10 0.10 90 1009.8
20260506192011 26 165 0.0 0.0 0.10 0.10 0.10 91 1009.8
20260506191516 26 165 0.0 0.0 0.10 0.10 0.10 92 1009.8
20260506191009 26 165 0.0 0.0 0.10 0.10 0.10 91 1009.9
20260506190506 26 165 0.0 0.0 0.10 0.10 0.10 91 1010.0
20260506190011 26 165 0.0 0.0 0.10 0.10 0.10 92 1010.0
20260506185508 25 165 0.0 0.0 0.10 0.10 0.10 91 1010.1
20260506185007 26 165 0.0 0.0 0.10 0.10 0.10 89 1010.2
20260506184531 26 165 0.0 0.0 0.10 0.10 0.10 89 1010.2
20260506184007 26 164 0.0 0.0 0.03 0.03 0.03 87 1010.2
20260506183504 26 164 0.0 0.0 0.00 0.00 0.00 86 1010.3
20260506183028 26 164 0.0 0.0 0.00 0.00 0.00 85 1010.4
20260506182507 26 164 0.0 0.0 0.00 0.00 0.00 85 1010.4
20260506182006 26 164 0.0 0.0 0.00 0.00 0.00 85 1010.4
20260506181527 27 164 0.0 0.0 0.00 0.00 0.00 84 1010.5
20260506181004 27 164 0.0 0.0 0.00 0.00 0.00 85 1010.6
20260506180509 27 164 0.0 0.0 0.00 0.00 0.00 84 1010.8
20260506180026 27 217 0.0 0.0 0.00 0.00 0.00 84 1010.9
20260506175506 27 217 0.0 0.0 0.00 0.00 0.00 84 1011.1
20260506175012 26 217 0.0 0.0 0.00 0.00 0.00 85 1011.1
20260506174522 26 217 0.0 0.0 0.00 0.00 0.00 85 1011.3
20260506174011 27 217 0.0 0.0 0.00 0.00 0.00 84 1011.4
20260506173508 27 217 0.0 0.0 0.00 0.00 0.00 85 1011.5
20260506173020 26 217 0.0 0.0 0.00 0.00 0.00 85 1011.5
20260506172509 26 217 0.0 0.0 0.00 0.00 0.00 87 1011.6
20260506172009 26 216 0.0 0.0 0.00 0.00 0.00 86 1011.6
20260506171523 26 216 0.0 0.0 0.00 0.00 0.00 87 1011.6
20260506171009 26 216 0.0 0.0 0.00 0.00 0.00 88 1011.5
20260506170511 26 217 0.0 0.0 0.00 0.00 0.00 86 1011.7
20260506170037 26 217 0.0 0.0 0.00 0.00 0.00 86 1011.7
20260506165508 26 216 0.0 0.0 0.00 0.00 0.00 87 1011.7
20260506165006 26 217 0.0 0.0 0.00 0.00 0.00 87 1011.7
20260506164532 26 216 0.0 0.0 0.00 0.00 0.00 87 1011.6
20260506164009 26 216 0.0 0.0 0.00 0.00 0.00 86 1011.6
20260506163512 26 216 0.0 0.0 0.00 0.00 0.00 84 1011.5
20260506163029 26 213 0.0 1.6 0.00 0.00 0.00 85 1011.4
20260506162509 26 213 0.0 1.6 0.00 0.00 0.00 85 1011.3
20260506162013 26 217 0.0 1.6 0.00 0.00 0.00 85 1011.4
20260506161525 26 212 0.0 0.0 0.00 0.00 0.00 85 1011.2
20260506161005 26 212 0.0 0.0 0.00 0.00 0.00 85 1011.1
20260506160509 26 212 0.0 0.0 0.00 0.00 0.00 85 1011.2
20260506160026 26 214 0.0 1.6 0.00 0.00 0.00 85 1011.2
20260506155505 26 214 0.0 1.6 0.00 0.00 0.00 86 1011.0
20260506155011 26 351 0.0 1.6 0.00 0.00 0.00 87 1010.9
20260506154525 26 352 0.0 1.6 0.00 0.00 0.00 87 1011.0
20260506154014 26 341 0.0 1.6 0.00 0.00 0.00 86 1010.9
20260506153514 26 240 0.0 0.0 0.00 0.00 0.00 87 1011.0
20260506153020 26 221 0.0 0.0 0.00 0.00 0.00 86 1010.9
20260506152509 26 221 0.0 1.6 0.00 0.00 0.00 87 1010.9
20260506152011 26 221 0.0 1.6 0.00 0.00 0.00 87 1010.9
20260506151529 26 222 0.0 1.6 0.00 0.00 0.00 87 1011.0
20260506151004 26 223 0.0 0.0 0.00 0.00 0.00 87 1011.1
20260506150507 26 153 0.0 0.0 0.00 0.00 0.00 87 1010.9
20260506150012 25 152 0.0 0.0 0.00 0.00 0.00 88 1010.8
20260506145505 25 153 0.0 0.0 0.00 0.00 0.00 88 1010.6
20260506145010 25 153 0.0 0.0 0.00 0.00 0.00 88 1010.7
20260506144512 25 153 0.0 0.0 0.00 0.00 0.00 88 1010.6
20260506144002 25 210 0.0 0.0 0.00 0.00 0.00 89 1010.5
20260506143505 25 210 0.0 0.0 0.00 0.00 0.00 89 1010.5
20260506143009 25 210 0.0 0.0 0.00 0.00 0.00 89 1010.4
20260506142510 25 199 0.0 0.0 0.00 0.00 0.00 90 1010.2
20260506142006 25 199 0.0 0.0 0.00 0.00 0.00 90 1010.2
20260506141506 25 166 0.0 0.0 0.00 0.00 0.00 91 1010.2
20260506141006 25 166 0.0 0.0 0.00 0.00 0.00 92 1010.3
20260506140503 24 166 0.0 0.0 0.00 0.00 0.00 91 1010.3
20260506140004 24 166 0.0 0.0 0.00 0.00 0.00 92 1010.4
20260506135506 24 166 0.0 0.0 0.00 0.00 0.00 92 1010.3
20260506135002 24 180 0.0 0.0 0.00 0.00 0.00 92 1010.4
20260506134523 24 181 0.0 0.0 0.00 0.00 0.00 93 1010.6
20260506134005 24 181 0.0 0.0 0.00 0.00 0.00 93 1010.6
20260506133503 23 181 0.0 0.0 0.00 0.00 0.00 93 1010.6
20260506133039 23 181 0.0 0.0 0.00 0.00 0.00 93 1010.5
20260506132508 23 181 0.0 0.0 0.00 0.00 0.00 93 1010.7
20260506132007 23 181 0.0 0.0 0.00 0.00 0.00 93 1010.6
20260506131523 23 181 0.0 0.0 0.00 0.00 0.00 93 1010.6
20260506131003 23 181 0.0 0.0 0.00 0.00 0.00 94 1010.6
20260506130507 23 181 0.0 0.0 0.00 0.00 0.00 94 1010.6
20260506130016 23 181 0.0 0.0 0.00 0.00 0.00 94 1010.6
20260506125503 23 181 0.0 0.0 0.00 0.00 0.00 94 1010.5
20260506125007 23 181 0.0 0.0 0.00 0.00 0.00 94 1010.4
20260506124513 23 181 0.0 0.0 0.00 0.00 0.00 94 1010.4
20260506124009 23 181 0.0 0.0 0.00 0.00 0.00 94 1010.3
20260506123507 23 181 0.0 0.0 0.00 0.00 0.00 94 1010.2
20260506123012 23 181 0.0 0.0 0.00 0.00 0.00 94 1010.2
20260506122509 23 181 0.0 0.0 0.00 0.00 0.00 94 1010.2
20260506122006 23 181 0.0 0.0 0.00 0.00 0.00 94 1010.2
20260506121510 23 181 0.0 0.0 0.00 0.00 0.00 94 1010.2
20260506121006 23 181 0.0 0.0 0.00 0.00 0.00 94 1010.1
20260506120503 23 181 0.0 0.0 0.00 0.00 0.00 94 1010.0
20260506120035 23 181 0.0 0.0 0.00 0.00 0.00 94 1009.9
20260506115512 23 181 0.0 0.0 0.00 0.00 0.00 94 1010.0
20260506115004 23 181 0.0 0.0 0.00 0.00 0.00 94 1010.0
20260506114523 23 181 0.0 0.0 0.00 0.00 0.00 94 1009.8
20260506114008 22 181 0.0 0.0 0.00 0.00 0.00 94 1009.6
20260506113504 22 181 0.0 0.0 0.00 0.00 0.00 94 1009.8
20260506113023 22 181 0.0 0.0 0.00 0.00 0.00 93 1009.9
20260506112503 22 181 0.0 0.0 0.00 0.00 0.00 93 1009.8
20260506112010 22 181 0.0 0.0 0.00 0.00 0.00 93 1009.7
20260506111519 22 181 0.0 0.0 0.00 0.00 0.00 93 1009.7
20260506111006 22 181 0.0 0.0 0.00 0.00 0.00 93 1009.6
20260506110509 22 181 0.0 0.0 0.00 0.00 0.00 93 1009.5
20260506110019 23 181 0.0 0.0 0.00 0.00 0.00 93 1009.4
20260506105506 23 181 0.0 3.2 0.00 0.00 0.00 92 1009.2
20260506105008 23 181 0.0 3.2 0.00 0.00 0.00 92 1009.0
20260506104512 23 313 0.0 1.6 0.00 0.00 0.00 92 1009.0
20260506104008 23 69 0.0 1.6 0.00 0.00 0.00 92 1008.9
20260506103507 23 92 0.0 1.6 0.00 0.00 0.00 92 1008.8
20260506103010 23 288 0.0 1.6 0.00 0.00 0.00 92 1008.8
20260506102509 23 114 0.0 1.6 0.00 0.00 0.00 92 1008.8
20260506102009 23 91 0.0 6.4 0.00 0.00 0.00 92 1008.9
20260506101538 23 197 0.0 6.4 0.00 0.00 0.00 92 1008.8
20260506101010 23 70 0.0 3.2 0.00 0.00 0.00 92 1008.9
20260506100503 23 79 0.0 4.8 0.00 0.00 0.00 92 1008.8
20260506100031 23 110 0.0 4.8 0.00 0.00 0.00 92 1008.9
20260506095505 23 180 0.0 4.8 0.00 0.00 0.00 92 1008.9
20260506095004 23 75 0.0 6.4 0.00 0.00 0.00 92 1008.7
20260506094525 23 82 0.0 6.4 0.00 0.00 0.00 92 1008.6
20260506094006 23 131 0.0 1.6 0.00 0.00 0.00 92 1008.4
20260506093512 23 117 0.0 3.2 0.00 0.00 0.00 92 1008.5
20260506093024 23 117 0.0 4.8 0.00 0.00 0.00 92 1008.4
20260506092507 23 151 0.0 4.8 0.00 0.00 0.00 92 1008.4
20260506092010 23 124 0.0 6.4 0.00 0.00 0.00 92 1008.4
20260506091522 23 222 0.0 6.4 0.00 0.00 0.00 92 1008.4
20260506091007 23 105 0.0 6.4 0.00 0.00 0.00 92 1008.5
20260506090509 23 235 0.0 6.4 0.00 0.00 0.00 92 1008.5
20260506090019 23 91 0.0 8.0 0.00 0.00 0.00 91 1008.4
20260506085509 23 81 0.0 8.0 0.00 0.00 0.00 91 1008.4
20260506085006 23 113 0.0 3.2 0.00 0.00 0.00 91 1008.5
20260506084523 23 92 0.0 4.8 0.00 0.00 0.00 91 1008.4
20260506084008 23 116 0.0 8.0 0.00 0.00 0.00 91 1008.3
20260506083507 23 115 0.0 8.0 0.00 0.00 0.00 91 1008.5
20260506083029 23 108 1.6 8.0 0.00 0.00 0.00 91 1008.5
20260506082506 23 262 0.0 6.4 0.00 0.00 0.00 91 1008.6
20260506082009 23 216 0.0 6.4 0.00 0.00 0.00 91 1008.6
20260506081528 23 109 0.0 3.2 0.00 0.00 0.00 91 1008.6
20260506081015 23 111 0.0 3.2 0.00 0.00 0.00 91 1008.6
20260506080504 23 246 0.0 1.6 0.00 0.00 0.00 91 1008.7
20260506073509 24 113 0.0 3.2 0.00 0.00 0.00 91 1009.1
20260506073025 24 212 0.0 4.8 0.00 0.00 0.00 91 1009.2
20260506072504 24 96 0.0 4.8 0.00 0.00 0.00 91 1009.3
20260506072015 24 215 0.0 3.2 0.00 0.00 0.00 91 1009.4
20260506071522 24 117 0.0 3.2 0.00 0.00 0.00 91 1009.5
20260506071012 24 121 0.0 3.2 0.00 0.00 0.00 91 1009.6
20260506070510 24 212 0.0 1.6 0.00 0.00 0.00 90 1009.5
20260506062512 24 83 0.0 1.6 0.00 0.00 0.00 90 1009.7
20260506062008 24 241 0.0 3.2 0.00 0.00 0.00 90 1009.7
20260506061510 24 266 0.0 3.2 0.00 0.00 0.00 90 1009.7
20260506061004 24 207 0.0 8.0 0.00 0.00 0.00 90 1009.7
20260506060501 24 126 0.0 8.0 0.00 0.00 0.00 90 1009.8
20260506051003 24 111 0.0 9.7 0.00 0.00 0.00 88 1009.4
20260506050503 24 94 0.0 9.7 0.00 0.00 0.00 88 1009.4
20260506045004 25 111 0.0 4.8 0.00 0.00 0.00 88 1009.5
20260506044519 25 207 0.0 4.8 0.00 0.00 0.00 88 1009.5
20260506044005 25 248 0.0 6.4 0.00 0.00 0.00 88 1009.4
20260506043506 25 199 0.0 6.4 0.00 0.00 0.00 88 1009.5
20260506043014 25 217 0.0 6.4 0.00 0.00 0.00 87 1009.3
20260506042502 25 108 1.6 4.8 0.00 0.00 0.00 87 1009.4
20260506042003 25 309 0.0 4.8 0.00 0.00 0.00 87 1009.4
20260506041514 25 144 0.0 4.8 0.00 0.00 0.00 87 1009.5
20260506041002 25 205 0.0 4.8 0.00 0.00 0.00 87 1009.5
20260506040507 25 107 0.0 9.7 0.00 0.00 0.00 87 1009.6
20260506040020 25 207 1.6 9.7 0.00 0.00 0.00 87 1009.5
20260506035503 25 238 0.0 3.2 0.00 0.00 0.00 87 1009.3
20260506035007 25 241 0.0 3.2 0.00 0.00 0.00 87 1009.2
20260506034510 25 252 0.0 3.2 0.00 0.00 0.00 87 1009.2
20260506034002 25 110 0.0 1.6 0.00 0.00 0.00 87 1009.2
20260506033505 25 115 0.0 1.6 0.00 0.00 0.00 87 1009.2
20260506033007 25 192 0.0 1.6 0.00 0.00 0.00 86 1009.2
20260506032507 25 229 0.0 1.6 0.00 0.00 0.00 86 1009.1
20260506032006 25 288 0.0 1.6 0.00 0.00 0.00 86 1009.0
20260506031504 25 288 0.0 4.8 0.00 0.00 0.00 86 1009.0
20260506031004 25 288 0.0 4.8 0.00 0.00 0.00 86 1009.0
20260506030505 25 176 0.0 4.8 0.00 0.00 0.00 86 1009.0
20260506030004 25 198 0.0 9.7 0.00 0.00 0.00 85 1008.9
20260506025506 25 208 0.0 9.7 0.00 0.00 0.00 85 1008.9
20260506025003 25 176 0.0 9.7 0.00 0.00 0.00 85 1008.8
20260506024525 25 247 0.0 9.7 0.00 0.00 0.00 85 1008.7
20260506024006 25 254 0.0 4.8 0.00 0.00 0.00 85 1008.7
20260506023502 25 255 0.0 4.8 0.00 0.00 0.00 85 1008.6
20260506023026 25 262 0.0 6.4 0.00 0.00 0.00 85 1008.4
20260506022505 25 311 0.0 6.4 0.00 0.00 0.00 85 1008.4
20260506022012 25 136 0.0 4.8 0.00 0.00 0.00 85 1008.3
20260506021529 25 219 0.0 4.8 0.00 0.00 0.00 85 1008.3
20260506021002 25 192 0.0 1.6 0.00 0.00 0.00 85 1008.1
20260506020507 25 245 0.0 1.6 0.00 0.00 0.00 85 1008.1
20260506020010 25 132 0.0 0.0 0.00 0.00 0.00 85 1008.0
20260506015503 25 163 0.0 1.6 0.00 0.00 0.00 85 1008.0
20260506015007 25 230 0.0 1.6 0.00 0.00 0.00 84 1007.9
20260506014508 25 230 0.0 0.0 0.00 0.00 0.00 84 1007.8
20260506014007 25 249 0.0 6.4 0.00 0.00 0.00 84 1007.8
20260506013506 25 248 0.0 6.4 0.00 0.00 0.00 84 1007.7
20260506013007 25 250 0.0 6.4 0.00 0.00 0.00 84 1007.6
20260506012506 25 257 0.0 4.8 0.00 0.00 0.00 84 1007.5
20260506012004 25 224 0.0 4.8 0.00 0.00 0.00 83 1007.5
20260506011507 25 221 0.0 3.2 0.00 0.00 0.00 83 1007.4
20260506011008 25 214 0.0 1.6 0.00 0.00 0.00 83 1007.3
20260506010505 26 214 0.0 6.4 0.00 0.00 0.00 82 1007.3
20260506010041 26 221 0.0 11.3 0.00 0.00 0.00 82 1007.3
20260506005506 26 174 0.0 11.3 0.00 0.00 0.00 82 1007.1
20260506005003 26 169 0.0 8.0 0.00 0.00 0.00 81 1006.9
20260506004525 26 106 0.0 6.4 0.00 0.00 0.00 81 1007.0
20260506004004 26 121 0.0 6.4 0.00 0.00 0.00 81 1007.0
20260506003509 26 244 0.0 4.8 0.00 0.00 0.00 81 1007.1
20260506003020 26 93 0.0 4.8 0.00 0.00 0.00 81 1007.0
20260506002507 26 101 0.0 3.2 0.00 0.00 0.00 81 1007.1
20260506002009 26 128 0.0 1.6 0.00 0.00 0.00 81 1007.1
20260506001515 26 178 0.0 4.8 0.00 0.00 0.00 81 1007.0
20260506001003 26 195 0.0 4.8 0.00 0.00 0.00 81 1007.0
20260506000507 26 263 0.0 3.2 0.00 0.00 0.00 80 1007.3
20260506000015 27 291 0.0 3.2 0.00 0.00 0.00 80 1007.2
20260505235509 27 98 0.0 3.2 0.00 0.00 0.00 80 1006.9
20260505235007 27 117 1.6 3.2 0.00 0.00 0.00 79 1006.8
20260505234525 27 156 0.0 1.6 0.00 0.00 0.00 79 1007.0
20260505234007 27 223 0.0 1.6 0.00 0.00 0.00 79 1007.0
20260505233503 27 268 0.0 4.8 0.00 0.00 0.00 78 1006.9
20260505233010 27 269 0.0 8.0 0.00 0.00 0.00 78 1006.8
20260505232510 27 122 0.0 8.0 0.00 0.00 0.00 78 1006.7
20260505232007 27 200 1.6 14.5 0.00 0.00 0.00 78 1006.8
20260505231531 27 98 1.6 14.5 0.00 0.00 0.00 77 1006.7
20260505231006 27 199 0.0 8.0 0.00 0.00 0.00 78 1006.7
20260505230504 27 115 0.0 8.0 0.00 0.00 0.00 77 1006.9
20260505230025 27 26 0.0 8.0 0.00 0.00 0.00 77 1007.0
20260505225508 27 274 1.6 9.7 0.00 0.00 0.00 77 1006.9
20260505225006 27 190 1.6 9.7 0.00 0.00 0.00 76 1007.0
20260505224522 27 240 1.6 8.0 0.00 0.00 0.00 77 1006.9
20260505224006 28 107 0.0 8.0 0.00 0.00 0.00 79 1006.9
20260505223519 27 279 0.0 8.0 0.00 0.00 0.00 78 1006.8
20260505223020 27 205 1.6 8.0 0.00 0.00 0.00 77 1006.7
20260505222509 27 262 3.2 11.3 0.00 0.00 0.00 76 1006.8
20260505222008 28 103 1.6 11.3 0.00 0.00 0.00 76 1007.0
20260505221517 28 107 0.0 9.7 0.00 0.00 0.00 77 1006.9
20260505221016 28 98 3.2 9.7 0.00 0.00 0.00 76 1006.9
20260505220508 28 154 0.0 11.3 0.00 0.00 0.00 77 1007.0
20260505220015 28 168 1.6 11.3 0.00 0.00 0.00 76 1007.1